Location: Austin
(30.3000°N, 97.7500°W)
Time: 02:22:16
(UTC-06:00)

Cosmos 2285 Rocket - Pass Details

Date: 20 November 2023
Orbit: 970 x 999 km, 74.0° (Epoch: 04 December)

Event Time Altitude Azimuth Distance (km) Brightness Sun altitude
Rises 18:32:18 0° 352° (N) 3,713 7.0 -13.1°
Reaches altitude 10° 18:35:01 10° 359° (N) 2,764 6.2 -13.6°
Maximum altitude 18:41:05 43° 70° (ENE) 1,379 4.3 -14.9°
Drops below altitude 10° 18:47:07 10° 140° (SE) 2,758 6.1 -16.2°
Sets 18:49:48 0° 147° (SSE) 3,704 6.8 -16.7°
